Lid_Strength_Index
2 3 3 3 3 3 3 5 9 5 3 8 9 11 9 8 8 7 7 7 8 9 10 12 13 12 11 10 9 10 9 10 13 13 11 11 12 12 12 14 16 16 16 15
3 4 3 3 3 3 5 7 7 4 4 11 11 9 9 8 8 8 8 8 8 8 9 11 12 12 10 9 9 9 9 11 14 13 12 11 13 12 12 13 13 15 16 14
3 4 3 3 3 3 5 7 11 6 6 9 10 10 10 10 8 8 7 7 7 8 9 9 10 12 10 10 10 8 7 11 11 13 12 11 13 14 12 12 15 15 15 14
3 3 3 3 3 4 5 8 9 8 11 9 10 9 9 10 10 8 8 8 8 9 10 9 10 10 11 10 9 8 8 11 11 11 11 11 12 13 13 13 13 14 14 14
3 3 3 3 3 3 5 9 9 9 9 8 9 10 10 10 10 9 9 9 7 7 9 9 10 10 11 11 10 9 9 11 11 13 11 11 12 12 13 13 14 14 14 14
2 3 3 3 3 3 5 8 7 9 12 10 10 10 10 10 8 8 8 7 8 9 8 7 6 7 8 9 10 10 10 12 12 14 12 13 13 12 12 13 13 13 14 12
2 3 3 4 3 3 4 7 7 8 12 11 10 9 9 9 9 9 7 6 7 5 5 6 7 7 8 8 9 9 11 12 13 14 14 16 11 11 11 12 13 13 12 12
2 3 3 4 4 3 4 6 5 7 11 10 10 10 9 9 8 8 8 7 4 4 5 8 10 11 10 10 10 10 9 12 15 15 15 14 13 13 13 13 13 11 11 12
3 3 3 4 4 3 4 5 4 6 9 10 9 9 9 10 10 9 8 5 4 4 7 10 14 15 13 12 11 10 10 10 12 15 16 17 12 12 11 11 14 11 11 12
3 3 4 4 4 3 4 4 4 5 8 8 8 9 9 8 9 10 9 7 6 4 9 12 13 14 10 14 13 13 12 13 14 16 15 13 11 12 11 14 12 11 10 10
3 3 4 4 4 3 3 5 3 4 7 7 7 7 8 8 9 10 8 7 7 8 11 11 12 12 11 11 10 12 13 13 14 14 15 15 10 11 13 10 10 10 10 10
3 3 3 4 4 4 4 5 3 3 5 6 5 6 6 5 5 7 8 8 7 7 9 9 10 12 11 11 14 10 14 11 12 12 12 10 9 9 10 9 9 9 10 10
2 3 3 3 4 3 3 4 4 4 7 7 6 7 6 6 5 4 7 6 5 6 5 7 9 13 9 13 12 11 10 9 11 11 10 10 10 9 9 8 8 9 10 12
2 2 2 3 3 3 2 3 3 5 7 11 9 6 6 5 5 5 5 5 5 5 6 9 10 12 8 11 11 11 9 9 11 12 11 10 10 9 9 9 9 10 10 11
3 3 2 2 2 2 2 2 2 3 6 10 9 7 6 5 5 6 5 6 6 7 8 12 11 8 8 11 11 12 9 10 11 12 9 9 9 8 8 9 10 10 11 11
3 4 3 3 2 2 3 6 3 2 3 8 10 7 7 6 5 5 5 6 5 5 7 8 8 8 8 11 12 9 9 8 9 9 9 9 9 9 8 10 10 10 10 11
3 2 2 2 2 2 5 7 4 2 2 9 11 10 7 6 6 6 6 5 6 6 8 9 9 8 9 11 12 9 9 9 9 9 9 10 10 10 10 10 11 11 11 11
2 2 2 2 2 2 4 4 2 2 5 6 11 10 9 6 8 9 7 8 7 8 8 9 8 9 10 11 9 9 9 9 10 10 10 10 11 11 11 11 11 12 13 13
2 2 2 2 3 5 4 2 2 1 5 10 11 11 11 6 9 8 8 8 10 9 10 9 8 11 12 9 9 9 9 10 11 10 10 11 11 11 11 12 12 13 14 14
2 3 5 10 5 2 2 4 7 8 9 8 10 10 10 7 9 9 10 10 11 11 10 9 11 11 10 9 9 9 9 9 10 12 13 12 12 12 12 12 12 12 14 14
5 8 10 6 2 4 7 10 10 10 12 10 9 9 10 6 10 11 9 11 11 13 11 11 12 12 11 10 11 10 10 10 10 10 10 10 10 12 12 13 13 14 14 15
5 6 5 6 7 9 11 12 11 12 12 10 10 10 8 8 7 10 11 12 12 14 11 12 14 12 11 11 12 11 11 11 12 11 12 11 11 11 12 13 14 15 16 16
3 5 8 8 10 12 12 16 13 13 10 10 9 10 8 8 7 11 11 13 14 12 13 13 12 12 11 12 12 12 12 12 12 13 13 13 14 14 14 16 16 16 17 17
7 9 12 11 13 12 12 11 11 9 8 9 9 10 9 9 10 11 13 12 13 15 17 15 13 11 12 12 13 13 13 13 14 14 14 15 15 16 16 15 15 17 16 16
9 9 12 12 10 10 10 10 10 9 7 8 9 9 9 10 11 11 12 15 16 14 14 13 12 12 13 13 13 13 13 14 14 14 14 15 15 15 15 14 13 13 16 16
8 9 11 10 10 10 10 10 9 7 7 8 8 10 11 11 11 13 14 14 15 13 13 12 12 13 13 13 13 13 13 13 13 13 14 14 14 13 13 12 13 15 15 16
9 10 8 9 9 8 9 8 8 6 8 9 9 12 12 11 13 14 12 14 14 13 13 12 12 13 14 13 13 13 13 13 13 13 13 12 11 11 12 12 12 12 12 12